Location: Grieser Field
(39.7333°N, 81.7975°W)
Time: 01:36:04
(UTC-04:00)

MOS 1-B - Visible Passes

Search period start: 23 July 2014 00:00
Search period end: 02 August 2014 00:00
Orbit: 905 x 915 km, 99.1° (Epoch: 21 July)

Date Brightness Start Highest point End Pass type
(mag) Time Alt. Az. Time Alt. Az. Time Alt. Az.
23 Jul 6.4 02:33:35 10° NE 02:37:06 16° E 02:38:58 14° ESE visible
23 Jul 4.4 04:13:42 10° N 04:19:26 67° WNW 04:22:14 31° SW visible
24 Jul 6.2 02:38:52 10° NE 02:42:47 19° E 02:44:36 16° ESE visible
24 Jul 4.5 04:19:21 10° N 04:25:01 60° WNW 04:27:52 30° SW visible
25 Jul 6.1 02:44:13 10° NE 02:48:27 21° E 02:50:14 18° ESE visible
25 Jul 4.6 04:25:00 10° N 04:30:37 54° WNW 04:33:29 28° SW visible
26 Jul 6.0 02:49:36 10° NE 02:54:07 23° E 02:55:52 20° ESE visible
26 Jul 4.7 04:30:40 10° N 04:36:11 48° WNW 04:39:07 26° SW visible
27 Jul 5.8 02:55:01 10° NE 02:59:46 26° E 03:01:29 23° ESE visible
27 Jul 4.9 04:36:21 10° N 04:41:46 43° WNW 04:44:45 24° SW visible
28 Jul 5.7 03:00:28 10° NE 03:05:25 29° E 03:07:07 25° SE visible
28 Jul 5.0 04:42:02 10° N 04:47:20 39° WNW 04:50:22 23° WSW visible
29 Jul 5.6 03:05:56 10° NE 03:11:04 32° E 03:12:44 28° SE visible
29 Jul 5.2 04:47:44 10° N 04:52:54 35° WNW 04:56:00 21° WSW visible
30 Jul 5.4 03:11:26 10° NNE 03:16:43 36° E 03:18:22 30° SE visible
30 Jul 5.3 04:53:26 10° N 04:58:28 32° WNW 05:01:37 19° WSW visible
31 Jul 5.2 03:16:56 10° NNE 03:22:22 40° E 03:23:59 33° SE visible
31 Jul 5.4 04:59:10 10° N 05:04:01 29° WNW 05:07:14 18° WSW visible
01 Aug 5.1 03:22:28 10° NNE 03:28:00 45° E 03:29:36 37° SE visible
01 Aug 5.6 05:04:55 10° N 05:09:34 26° WNW 05:12:52 16° WSW visible
